This is the latest recevied weather packets stored in our database for station/object AG1T-20. If no packets are shown the sender has not sent any weather packets the latest 10 day(s).
| Time | Temp. | Humidity | Pressure | Rain* | Wind** | Luminosity | Snow |
|---|---|---|---|---|---|---|---|
| 1777489205 | 14.44° C | 30% | 1021.7 hPa | 0 mm | - | 848 W/m² | - |
| 1777488605 | 14.44° C | 31% | 1022.2 hPa | 0 mm | - | 811 W/m² | - |
| 1777488005 | 13.89° C | 33% | 1022.2 hPa | 0 mm | - | 751 W/m² | - |
| 1777487405 | 13.89° C | 39% | 1022.2 hPa | 0 mm | - | 727 W/m² | - |
| 1777486805 | 13.33° C | - | - | 0 mm | - | 101 W/m² | - |
| 1777486205 | 13.33° C | 37% | 1022.2 hPa | 0 mm | - | 918 W/m² | - |
| 1777485605 | 12.22° C | 45% | 1022.2 hPa | 0 mm | - | 992 W/m² | - |
| 1777485005 | 12.22° C | - | - | 0 mm | - | 100 W/m² | - |
| 1777484405 | 12.22° C | - | - | 0 mm | - | 116 W/m² | - |
| 1777483805 | 12.22° C | 48% | 1022.5 hPa | 0 mm | - | 381 W/m² | - |
| 1777483205 | 11.11° C | 53% | 1022.5 hPa | 0 mm | - | 407 W/m² | - |
| 1777482605 | 11.11° C | 50% | 1022.5 hPa | 0 mm | - | 446 W/m² | - |
| 1777482005 | 10° C | 51% | 1022.5 hPa | 0 mm | - | 436 W/m² | - |
| 1777481405 | 10° C | 52% | 1022.8 hPa | 0 mm | - | 261 W/m² | - |
| 1777480805 | 10.56° C | 51% | 1022.8 hPa | 0 mm | - | 526 W/m² | - |
| 1777480205 | 10.56° C | - | - | 0 mm | - | 108 W/m² | - |
| 1777479605 | 9.44° C | 55% | 1022.8 hPa | 0 mm | - | 867 W/m² | - |
| 1777479005 | 9.44° C | 56% | 1022.8 hPa | 0 mm | - | 939 W/m² | - |
| 1777478405 | 9.44° C | 56% | 1022.8 hPa | 0 mm | - | 945 W/m² | - |
| 1777477805 | 8.89° C | 59% | 1022.8 hPa | 0 mm | - | 882 W/m² | - |
| 1777477205 | 7.78° C | 64% | 1022.8 hPa | 0 mm | - | 926 W/m² | - |
| 1777476605 | 7.22° C | 64% | 1022.8 hPa | 0 mm | - | 778 W/m² | - |
| 1777476005 | 6.67° C | 65% | 1022.8 hPa | 0 mm | - | 761 W/m² | - |
| 1777475405 | 6.11° C | 68% | 1022.8 hPa | 0 mm | - | 738 W/m² | - |
| 1777474805 | 5° C | 69% | 1022.8 hPa | 0 mm | - | 705 W/m² | - |
* Rain latest hour (hover to see other rain measurements)
** Current wind speed in m/s (hover to see current wind gust speed)